Kisumu, Kenya

5:15 AM EAT on March 23, 2017 (GMT +0300)
Kisumu

Weather History for HKKI - October, 2012

Change the Weather History Date:

Sunday, October 28, 2012

  Actual Average Record
Temperature  
Mean Temperature 73 °F -  
Max Temperature 82 °F - - ()
Min Temperature 64 °F - - ()
Cooling Degree Days 8    
Growing Degree Days 23 (Base 50)    
Moisture  
Dew Point 65 °F    
Average Humidity 80    
Maximum Humidity 94    
Minimum Humidity 52    
Precipitation  
Precipitation 0.83 in - - ()
Sea Level Pressure  
Sea Level Pressure 30.03 in    
Wind  
Wind Speed 6 mph ()    
Max Wind Speed 25 mph    
Max Gust Speed -    
Visibility 8.0 miles    
Events Rain , Thunderstorm    
T = Trace of Precipitation, MM = Missing Value Source: Averaged Metar Reports

Daily Weather History Graph

Daily Weather History Graph

Search for Another Location

Airport or City:

Trip Planner

Search our weather history database for the weather conditions in past years. The results will help you decide how hot, cold, wet, or windy it might be!

Date:

Astronomy

Oct. 28, 2012 Rise Set
Actual Time 6:21 AM EAT 6:28 PM EAT
Civil Twilight 5:59 AM EAT 6:49 PM EAT
Nautical Twilight 5:35 AM EAT 7:14 PM EAT
Astronomical Twilight 5:10 AM EAT 7:38 PM EAT
Moon 5:29 PM EAT (10/28) 5:05 AM EAT (10/28)
Length of Visible Light 12h 49m
Length of Day
12h 07m
Waxing Gibbous, 98% of the Moon is Illuminated
Oct 28
Waxing Gibbous
Oct 29
Full
Nov 7
Last Quarter
Nov 14
New
Nov 20
First Quarter

Hourly Weather History & Observations

Time (EAT) Temp. Heat Index Dew Point Humidity Pressure Visibility Wind Dir Wind Speed Gust Speed Precip Events Conditions
1:00 AM 68.0 °F - 66.2 °F 94% 30.04 in 6.2 mi East 4.6 mph - N/A   Partly Cloudy
2:00 AM 68.0 °F - 66.2 °F 94% 30.01 in 6.2 mi ESE 4.6 mph - N/A   Mostly Cloudy
3:00 AM 68 °F - 65 °F 88%  in 12 mi NNW 4.6 mph - -   Partly Cloudy
4:00 AM 68.0 °F - 66.2 °F 94% 30.01 in - Calm Calm - N/A   Clear
5:00 AM 68.0 °F - 66.2 °F 94% 30.01 in - Calm Calm - N/A   Clear
7:00 AM 68.0 °F - 66.2 °F 94% 30.04 in - Calm Calm - N/A   Clear
8:00 AM 68.0 °F - 66.2 °F 94% 30.04 in - East 5.8 mph - N/A   Clear
9:00 AM 71 °F - 65 °F 76%  in 19 mi Calm Calm - -   Clear
9:00 AM 71.6 °F - 64.4 °F 78% 30.06 in 6.2 mi Calm Calm - N/A   Mostly Cloudy
10:00 AM 73.4 °F - 62.6 °F 69% 30.09 in 6.2 mi South 3.5 mph - N/A   Mostly Cloudy
11:00 AM 75.2 °F - 62.6 °F 65% 30.09 in 6.2 mi WNW 3.5 mph - N/A   Mostly Cloudy
12:00 PM 77.0 °F - 64.4 °F 65% 30.06 in 6.2 mi SW 6.9 mph - N/A   Mostly Cloudy
1:00 PM 80.6 °F 82.3 °F 64.4 °F 58% 30.01 in 6.2 mi West 6.9 mph - N/A   Mostly Cloudy
2:00 PM 80.6 °F 82.3 °F 64.4 °F 58% 2.98 in 6.2 mi WSW 20.7 mph - N/A   Scattered Clouds
3:00 PM 81 °F - 66 °F 52%  in 19 mi WSW 25.3 mph - -   Scattered Clouds
3:00 PM 80.6 °F 82.7 °F 66.2 °F 61% 29.95 in 6.2 mi WSW 25.3 mph - N/A   Scattered Clouds
4:00 PM 77.0 °F - 66.2 °F 69% 29.98 in 6.2 mi WSW 20.7 mph - N/A Thunderstorm Light Thunderstorm
5:00 PM 64.4 °F - 62.6 °F 94% 30.01 in 1.9 mi ESE 18.4 mph - N/A Rain , Thunderstorm Thunderstorms and Rain
7:00 PM 66.2 °F - 64.4 °F 94% 30.01 in 6.2 mi NNW 6.9 mph - N/A Thunderstorm Light Thunderstorm
8:00 PM 68.0 °F - 64.4 °F 88% 30.04 in 6.2 mi NE 4.6 mph - N/A   Mostly Cloudy
9:00 PM 68 °F - 65 °F 87%  in 16 mi East 9.2 mph - -   Partly Cloudy
9:00 PM 68.0 °F - 64.4 °F 88% 30.06 in 6.2 mi East 9.2 mph - N/A   Mostly Cloudy
10:00 PM 68.0 °F - 64.4 °F 88% 30.06 in 6.2 mi ESE 4.6 mph - N/A   Mostly Cloudy
11:00 PM 68.0 °F - 64.4 °F 88% 30.06 in 6.2 mi East 5.8 mph - N/A   Mostly Cloudy